Daviess Cnty AP, Washington,, IN

1:32 PM EST on December 08, 2019 (GMT -0500)
Daviess County

Weather History for KDCY - October, 2019

Change the Weather History Date:

Wednesday, October 2, 2019

  Actual Average (KLWV) Record (KLWV)
Temperature  
Mean Temperature 80 °F -  
Max Temperature 92 °F 72 °F 95 °F (2019)
Min Temperature 68 °F 46 °F 35 °F (2003)
Cooling Degree Days 15    
Growing Degree Days 30 (Base 50)    
Moisture  
Dew Point 66 °F    
Average Humidity 65    
Maximum Humidity 89    
Minimum Humidity 41    
Precipitation  
Precipitation 0.00 in - - ()
Sea Level Pressure  
Sea Level Pressure 29.96 in    
Wind  
Wind Speed 7 mph (SW)    
Max Wind Speed 15 mph    
Max Gust Speed 22 mph    
Visibility 10 miles    
Events      
Averages and records for this station are not official NWS values.
T = Trace of Precipitation, MM = Missing Value Source: NWS Daily Summary

Daily Weather History Graph

Daily Weather History Graph

Search for Another Location

Airport or City:

Astronomy

Oct. 02, 2019 Rise Set
Actual Time 7:45 AM EDT 7:30 PM EDT
Civil Twilight 7:18 AM EDT 7:56 PM EDT
Nautical Twilight 6:47 AM EDT 8:27 PM EDT
Astronomical Twilight 6:16 AM EDT 8:58 PM EDT
Moon 12:07 PM EDT (10/2) 10:26 PM EDT (10/2)
Length of Visible Light 12h 37m
Length of Day
11h 44m
Waxing Crescent, 20% of the Moon is Illuminated
Oct 2
Waxing Crescent
Oct 5
First Quarter
Oct 13
Full
Oct 21
Last Quarter
Oct 27
New

Hourly Weather History & Observations

Time (EDT) Temp. Heat Index Dew Point Humidity Pressure Visibility Wind Dir Wind Speed Gust Speed Precip Events Conditions
12:20 AM 77.5 °F - 64.6 °F 64% 29.97 in 10.0 mi SW 8.1 mph - N/A   Clear
12:35 AM 77.0 °F - 64.8 °F 66% 29.97 in 10.0 mi SSW 6.9 mph - N/A   Clear
12:55 AM 76.5 °F - 64.8 °F 67% 29.97 in 10.0 mi SSW 5.8 mph - N/A   Clear
1:15 AM 75.2 °F - 64.6 °F 69% 29.96 in 10.0 mi SSW 6.9 mph - N/A   Clear
1:35 AM 75.6 °F - 64.8 °F 69% 29.96 in 10.0 mi SSW 6.9 mph - N/A   Clear
2:15 AM 74.3 °F - 64.8 °F 72% 29.96 in 10.0 mi SW 5.8 mph - N/A   Clear
2:35 AM 74.3 °F - 64.9 °F 72% 29.96 in 10.0 mi SW 6.9 mph - N/A   Clear
3:00 AM 73.6 °F - 64.9 °F 74% 29.96 in 10.0 mi SSW 5.8 mph - N/A   Clear
3:15 AM 73.9 °F - 65.3 °F 74% 29.95 in 10.0 mi SW 6.9 mph - N/A   Clear
3:35 AM 74.3 °F - 65.3 °F 73% 29.95 in 10.0 mi SW 5.8 mph - N/A   Clear
4:15 AM 72.5 °F - 65.3 °F 78% 29.95 in 10.0 mi SSW 4.6 mph - N/A   Clear
4:35 AM 72.0 °F - 65.3 °F 79% 29.95 in 10.0 mi SSW 4.6 mph - N/A   Clear
4:55 AM 71.8 °F - 65.3 °F 80% 29.95 in 10.0 mi SSW 4.6 mph - N/A   Clear
5:15 AM 71.6 °F - 64.9 °F 79% 29.95 in 10.0 mi SSW 4.6 mph - N/A   Clear
5:40 AM 71.6 °F - 65.3 °F 80% 29.95 in 10.0 mi SSW 4.6 mph - N/A   Clear
5:55 AM 71.6 °F - 65.3 °F 80% 29.95 in 10.0 mi SSW 4.6 mph - N/A   Clear
6:10 AM 71.8 °F - 65.3 °F 80% 29.96 in 10.0 mi SSW 5.8 mph - N/A   Clear
6:35 AM 71.4 °F - 64.9 °F 80% 29.97 in 10.0 mi SSW 3.5 mph - N/A   Clear
6:50 AM 70.3 °F - 64.9 °F 83% 29.97 in 10.0 mi SSW 4.6 mph - N/A   Clear
7:15 AM 69.6 °F - 65.1 °F 86% 29.98 in 10.0 mi South 5.8 mph - N/A   Clear
7:30 AM 68.9 °F - 65.3 °F 88% 29.98 in 10.0 mi South 5.8 mph - N/A   Clear
7:55 AM 69.1 °F - 65.7 °F 89% 29.99 in 10.0 mi SSW 5.8 mph - N/A   Clear
8:15 AM 70.3 °F - 65.7 °F 85% 29.99 in 10.0 mi SSW 5.8 mph - N/A   Clear
8:35 AM 72.9 °F - 65.8 °F 79% 30.00 in 10.0 mi SSW 5.8 mph - N/A   Clear
8:50 AM 74.3 °F - 66.2 °F 76% 30.00 in 10.0 mi SSW 6.9 mph - N/A   Clear
9:15 AM 76.3 °F - 66.2 °F 71% 30.00 in 10.0 mi SW 10.4 mph - N/A   Clear
9:35 AM 77.7 °F - 66.4 °F 68% 30.00 in 10.0 mi WSW 9.2 mph - N/A   Clear
9:55 AM 79.0 °F - 66.7 °F 66% 30.00 in 10.0 mi WSW 9.2 mph - N/A   Clear
10:15 AM 79.9 °F - 66.9 °F 64% 30.01 in 10.0 mi WSW 9.2 mph - N/A   Clear
10:35 AM 81.5 °F 84.1 °F 67.3 °F 62% 30.00 in 10.0 mi WSW 10.4 mph - N/A   Clear
10:55 AM 82.6 °F 85.1 °F 67.1 °F 59% 30.00 in 10.0 mi WSW 8.1 mph - N/A   Clear
11:15 AM 84.2 °F 87.1 °F 67.5 °F 57% 30.00 in 10.0 mi WSW 9.2 mph - N/A   Clear
11:35 AM 85.8 °F 88.8 °F 67.6 °F 54% 30.00 in 10.0 mi West 10.4 mph - N/A   Clear
11:55 AM 86.5 °F 89.3 °F 66.7 °F 52% 30.00 in 10.0 mi WSW 12.7 mph - N/A   Clear
12:15 PM 87.3 °F 89.8 °F 66.4 °F 50% 29.99 in 10.0 mi West 12.7 mph 20.7 mph N/A   Scattered Clouds
12:35 PM 87.8 °F 90.4 °F 66.2 °F 49% 29.99 in 10.0 mi West 15.0 mph 21.9 mph N/A   Clear
12:55 PM 86.9 °F 89.3 °F 66.2 °F 50% 29.99 in 10.0 mi West 12.7 mph - N/A   Scattered Clouds
1:15 PM 87.4 °F 90.1 °F 66.6 °F 50% 29.99 in 10.0 mi West 11.5 mph 16.1 mph N/A   Scattered Clouds
1:35 PM 89.4 °F 92.3 °F 66.9 °F 47% 29.97 in 10.0 mi WSW 10.4 mph - N/A   Scattered Clouds
1:55 PM 89.8 °F 92.9 °F 66.9 °F 47% 29.97 in 10.0 mi WNW 11.5 mph - N/A   Mostly Cloudy
2:15 PM 90.7 °F 93.2 °F 66.2 °F 44% 29.95 in 10.0 mi West 11.5 mph 19.6 mph N/A   Mostly Cloudy
2:35 PM 91.0 °F 93.0 °F 65.3 °F 42% 29.95 in 10.0 mi SW 8.1 mph - N/A   Scattered Clouds
2:55 PM 91.9 °F 94.1 °F 65.5 °F 41% 29.94 in 10.0 mi WSW 11.5 mph - N/A   Scattered Clouds
3:15 PM 91.8 °F 94.2 °F 65.8 °F 42% 29.94 in 10.0 mi West 10.4 mph 16.1 mph N/A   Scattered Clouds
3:35 PM 91.2 °F 93.3 °F 64.9 °F 42% 29.93 in 10.0 mi WSW 12.7 mph 20.7 mph N/A   Mostly Cloudy
3:55 PM 90.5 °F 92.2 °F 64.6 °F 42% 29.93 in 10.0 mi WSW 8.1 mph - N/A   Scattered Clouds
4:15 PM 90.9 °F 92.7 °F 64.9 °F 42% 29.92 in 10.0 mi West 8.1 mph - N/A   Scattered Clouds
4:30 PM 92.3 °F 94.7 °F 65.1 °F 41% 29.92 in 10.0 mi WSW 12.7 mph 16.1 mph N/A   Scattered Clouds
4:55 PM 91.6 °F 93.5 °F 64.6 °F 41% 29.92 in 10.0 mi West 9.2 mph - N/A   Mostly Cloudy
5:15 PM 91.0 °F 92.6 °F 64.0 °F 41% 29.92 in 10.0 mi WSW 9.2 mph - N/A   Scattered Clouds
5:35 PM 90.7 °F 92.1 °F 64.0 °F 41% 29.92 in 10.0 mi WSW 10.4 mph - N/A   Scattered Clouds
5:55 PM 90.3 °F 91.9 °F 64.6 °F 42% 29.92 in 10.0 mi SW 9.2 mph - N/A   Scattered Clouds
6:15 PM 87.1 °F 88.9 °F 65.1 °F 48% 29.92 in 10.0 mi WSW 5.8 mph - N/A   Scattered Clouds
6:35 PM 86.9 °F 88.9 °F 65.7 °F 49% 29.92 in 10.0 mi WSW 8.1 mph - N/A   Scattered Clouds
6:55 PM 84.4 °F 86.8 °F 66.4 °F 55% 29.92 in 10.0 mi West 3.5 mph - N/A   Clear
7:15 PM 81.5 °F 84.1 °F 67.5 °F 62% 29.92 in 10.0 mi Calm Calm - N/A   Clear
7:30 PM 78.1 °F - 67.8 °F 71% 29.92 in 10.0 mi Calm Calm - N/A   Clear
7:55 PM 77.0 °F - 67.3 °F 72% 29.93 in 10.0 mi Calm Calm - N/A   Clear
8:15 PM 75.9 °F - 66.0 °F 71% 29.93 in 10.0 mi Calm Calm - N/A   Clear
8:35 PM 74.7 °F - 65.8 °F 74% 29.93 in 10.0 mi Calm Calm - N/A   Clear
8:55 PM 73.6 °F - 65.5 °F 76% 29.93 in 10.0 mi Calm Calm - N/A   Clear
9:15 PM 72.0 °F - 65.3 °F 79% 29.93 in 10.0 mi South 3.5 mph - N/A   Clear
9:35 PM 72.7 °F - 65.1 °F 77% 29.93 in 10.0 mi Calm Calm - N/A   Clear
9:55 PM 72.1 °F - 65.3 °F 79% 29.93 in 10.0 mi Calm Calm - N/A   Clear
10:15 PM 70.9 °F - 65.1 °F 82% 29.93 in 10.0 mi Calm Calm - N/A   Clear
10:35 PM 71.6 °F - 65.5 °F 81% 29.93 in 10.0 mi Calm Calm - N/A   Clear
10:55 PM 71.4 °F - 65.5 °F 81% 29.93 in 10.0 mi Calm Calm - N/A   Clear
11:15 PM 71.8 °F - 64.8 °F 78% 29.92 in 10.0 mi Calm Calm - N/A   Clear
11:35 PM 71.1 °F - 64.2 °F 79% 29.93 in 10.0 mi Calm Calm - N/A   Clear
11:55 PM 71.2 °F - 64.8 °F 80% 29.94 in 10.0 mi SW 5.8 mph - N/A   Clear